Location: Mount Hamilton
(37.3433°N, 121.6347°W)
Time: 00:25:55
(UTC-08:00)

N. Korean satellite - Visible Passes

Search period start: 19 November 2017 00:00
Search period end: 29 November 2017 00:00
Orbit: 460 x 515 km, 97.2° (Epoch: 18 November)

Date Brightness Start Highest point End Pass type
(mag) Time Alt. Az. Time Alt. Az. Time Alt. Az.
19 Nov 7.8 18:32:00 10° S 18:35:18 42° W 18:38:41 10° NNW visible
20 Nov 9.8 06:01:47 10° NE 06:04:22 18° E 06:06:56 10° SE visible
20 Nov 6.4 18:08:20 10° SSE 18:11:49 85° ENE 18:15:22 10° N visible
21 Nov 7.0 17:45:09 10° SE 17:48:24 38° ENE 17:51:43 10° N visible
21 Nov 10.2 19:21:55 10° W 19:22:07 10° W 19:22:17 10° W visible
22 Nov 7.9 17:22:31 10° ESE 17:25:04 19° ENE 17:27:39 10° NNE visible
22 Nov 9.2 18:55:46 10° SW 18:58:27 20° W 19:01:11 10° NW visible
23 Nov 8.7 06:24:05 10° NNE 06:27:32 34° E 06:30:58 10° SSE visible
23 Nov 7.8 18:31:31 10° S 18:34:51 42° W 18:38:17 10° NNW visible
24 Nov 9.8 06:01:21 10° NE 06:03:56 18° E 06:06:31 10° SE visible
24 Nov 6.4 18:07:50 10° SSE 18:11:21 84° ENE 18:14:57 10° N visible
25 Nov 7.0 17:44:38 10° SE 17:47:55 38° ENE 17:51:16 10° N visible
25 Nov 10.1 19:21:04 10° W 19:21:37 10° W 19:22:11 10° W visible
26 Nov 7.9 17:21:59 10° ESE 17:24:34 19° ENE 17:27:11 10° NNE visible
26 Nov 9.2 18:55:12 10° SW 18:57:57 21° W 19:00:43 10° NW visible
27 Nov 8.7 06:23:36 10° NNE 06:27:03 34° E 06:30:29 10° SSE visible
27 Nov 7.8 18:30:57 10° S 18:34:20 43° W 18:37:48 10° NNW visible
28 Nov 9.8 06:00:52 10° NE 06:03:26 17° E 06:06:00 10° SE visible
28 Nov 6.4 18:07:16 10° SSE 18:10:48 84° E 18:14:26 10° N visible
